Torna al catalogo

STARLINK-37486

AttivoComunicazioniVLEO
NORAD 69264·PAYLOAD·🇺🇸 United States

Lanciato May 29, 2026 da Cape Canaveral Space Force Station

Loading…

Prossimi Passaggi (prossime 24 ore)

TLE

AggiornatoSource: CelesTrak SupGP

Epoca: Sep 15, 2026, 03:03 UTC

1 69264C 26117AC  26258.12756944 -.00091478  00000+0 -27019-2 0  2584
2 69264  53.1568 178.9923 0001318  84.0586 152.9439 15.34446079    17

Traccia STARLINK-37486 in tempo reale con AllMySat

Download on the App Store